Location: Newark
(23.3970°S, 47.6010°W)
Time: 11:44:19
(UTC+00:00)

Tiros 1 despin weight - Pass Details

Date: 21 February 2020
Orbit: 593 x 642 km, 48.2° (Epoch: 05 April)

Event Time Altitude Azimuth Distance (km) Brightness Sun altitude
Rises 15:26:44 0° 284° (WNW) 2,902 ? 77.2°
Reaches altitude 10° 15:29:27 10° 268° (W) 2,009 ? 77.1°
Maximum altitude 15:33:05 22° 217° (SW) 1,387 ? 77.0°
Drops below altitude 10° 15:36:46 10° 165° (SSE) 2,040 ? 76.8°
Sets 15:39:34 0° 150° (SSE) 2,959 ? 76.7°
